Location: Unspecified
(51.6250°N, 0.8230°E)
Time: 16:01:13
(UTC+01:00)

Intercosmos 25 - Visible Passes

Search period start: 22 September 2018 00:00
Search period end: 02 October 2018 00:00
Orbit: 440 x 2877 km, 82.6° (Epoch: 21 September)

Date Brightness Start Highest point End Pass type
(mag) Time Alt. Az. Time Alt. Az. Time Alt. Az.
22 Sep 6.9 00:07:19 10° NW 00:08:49 11° WNW 00:10:13 10° WNW visible
22 Sep 5.8 19:58:17 10° N 20:03:18 19° NE 20:06:11 13° E visible
22 Sep 4.1 21:58:28 10° NNW 22:05:32 76° W 22:05:44 75° WSW visible
23 Sep 6.9 00:03:12 10° WNW 00:03:30 10° WNW 00:03:49 10° WNW visible
23 Sep 5.8 19:53:17 10° N 19:58:03 18° NE 20:00:51 13° E visible
23 Sep 4.1 21:53:25 10° NNW 22:00:13 74° W 22:00:24 73° WSW visible
24 Sep 5.7 19:48:16 10° N 19:52:46 18° NE 19:55:31 12° E visible
24 Sep 4.0 21:48:20 10° NNW 21:54:53 73° W 21:55:04 72° WSW visible
25 Sep 5.7 19:43:15 10° N 19:47:30 17° NE 19:50:11 12° E visible
25 Sep 4.0 21:43:14 10° NNW 21:49:34 71° W 21:49:44 70° WSW visible
26 Sep 5.6 19:38:13 10° N 19:42:14 17° NE 19:44:51 12° E visible
26 Sep 4.0 21:38:08 10° NNW 21:44:14 69° W 21:44:25 68° WSW visible
27 Sep 5.6 19:33:10 10° N 19:36:57 16° NE 19:39:32 11° E visible
27 Sep 3.9 21:33:02 10° NNW 21:38:54 67° W 21:39:05 66° WSW visible
28 Sep 5.6 19:28:08 10° N 19:31:39 16° NE 19:34:13 11° E visible
28 Sep 3.9 21:27:54 10° NNW 21:33:33 65° W 21:33:47 64° WSW visible
29 Sep 5.5 19:23:04 10° NNE 19:26:22 15° NE 19:28:54 10° E visible
29 Sep 3.9 21:22:46 10° NNW 21:28:12 63° W 21:28:28 61° WSW visible
30 Sep 5.5 19:17:59 10° NNE 19:21:04 15° NE 19:23:34 10° E visible
30 Sep 3.9 21:17:37 10° NNW 21:22:51 61° W 21:23:10 59° WSW visible
01 Oct 5.5 19:12:55 10° NNE 19:15:46 14° NE 19:18:08 10° E visible
01 Oct 3.9 21:12:28 10° NNW 21:17:30 59° W 21:17:52 56° WSW visible
